Weather History for Sydney, NS

Change the Weather History Date:

Sunday, October 7, 2012

  Actual Average Record
Temperature  
Mean Temperature 58 °F -  
Max Temperature 66 °F 56 °F 71 °F (2005)
Min Temperature 50 °F 41 °F 33 °F (2002)
Degree Days  
Heating Degree Days 7    
Growing Degree Days 8 (Base 50)    
Moisture  
Dew Point 52 °F    
Average Humidity 76    
Maximum Humidity 88    
Minimum Humidity 52    
Precipitation  
Precipitation 0.03 in - - ()
Sea Level Pressure  
Sea Level Pressure 29.95 in    
Wind  
Wind Speed 9 mph ()    
Max Wind Speed 18 mph    
Max Gust Speed 28 mph    
Visibility 14.6 miles    
Events Rain    
Averages and records for this station are not official NWS values.
T = Trace of Precipitation, MM = Missing Value Source: Averaged Metar Reports

Daily Weather History Graph

Daily Weather History Graph

Search for Another Location

Airport:

Trip Planner

Search our weather history database for the weather conditions in past years. The results will help you decide how hot, cold, wet, or windy it might be!

Date:

Astronomy

Oct. 07, 2012 Rise Set
Actual Time 7:07 AM ADT 6:27 PM ADT
Civil Twilight 6:37 AM ADT 6:57 PM ADT
Nautical Twilight 6:02 AM ADT 7:32 PM ADT
Astronomical Twilight 5:27 AM ADT 8:07 PM ADT
Moon 11:21 PM ADT (10/7) 1:54 PM ADT (10/7)
Length of Visible Light 12h 20m
Length of Day
11h 20m
Waning Gibbous, 57% of the Moon is Illuminated
Oct 7
Waning Gibbous
Oct 8
Last Quarter
Oct 15
New
Oct 22
First Quarter
Oct 29
Full

Hourly Weather History & Observations

Time (ADT) Temp. Dew Point Humidity Pressure Visibility Wind Dir Wind Speed Gust Speed Precip Events Conditions
12:00 AM 59.0 °F 53.6 °F 82% 29.91 in 15.0 mi SSW 10.4 mph - N/A   Overcast
1:00 AM 59.0 °F 53.6 °F 82% 29.91 in 15.0 mi SSW 9.2 mph - N/A   Overcast
2:00 AM 60.8 °F 51.8 °F 72% 29.90 in 15.0 mi SSW 12.7 mph - N/A   Overcast
3:00 AM 60 °F 53 °F 71% 29.88 in 15 mi SSW 12.7 mph - -   Overcast
3:00 AM 60.8 °F 53.6 °F 77% 29.88 in 15.0 mi South 11.5 mph 17.3 mph N/A   Overcast
4:00 AM 60.8 °F 53.6 °F 77% 29.86 in 15.0 mi South 13.8 mph 25.3 mph N/A   Mostly Cloudy
5:00 AM 60.8 °F 55.4 °F 82% 29.87 in 15.0 mi SSW 13.8 mph - N/A   Mostly Cloudy
5:37 AM - - N/A% - 15.0 mi SSW 13.8 mph 19.6 mph N/A   Light Drizzle
6:00 AM 60.8 °F 55.4 °F 82% 29.86 in 15.0 mi South 16.1 mph 21.9 mph N/A   Scattered Clouds
6:21 AM - - N/A% - 15.0 mi SSW 13.8 mph 20.7 mph N/A   Mostly Cloudy
7:00 AM 60.8 °F 55.4 °F 82% 29.87 in 15.0 mi SSW 15.0 mph - N/A   Mostly Cloudy
7:52 AM - - N/A% - 15.0 mi SSW 12.7 mph 20.7 mph N/A Rain Light Rain Showers
8:00 AM 60.8 °F 57.2 °F 88% 29.87 in 15.0 mi SSW 12.7 mph 20.7 mph N/A Rain Light Rain Showers
9:00 AM 63 °F 57 °F 76% 29.87 in 15 mi SSW 13.8 mph - - Rain Light Rain Showers
9:00 AM 62.6 °F 57.2 °F 82% 29.87 in 15.0 mi South 12.7 mph 20.7 mph N/A Rain Light Rain Showers
9:20 AM - - N/A% - 15.0 mi SSW 12.7 mph 20.7 mph N/A   Mostly Cloudy
10:00 AM 64.4 °F 59.0 °F 83% 29.88 in 15.0 mi SSW 9.2 mph 20.7 mph N/A   Mostly Cloudy
11:00 AM 66.2 °F 59.0 °F 78% 29.89 in 15.0 mi SW 17.3 mph 27.6 mph N/A   Mostly Cloudy
11:10 AM - - N/A% - 3.0 mi WSW 18.4 mph - N/A Rain Rain Showers
11:33 AM - - N/A% - 15.0 mi WNW 13.8 mph - N/A   Mostly Cloudy
12:00 PM 59.0 °F 53.6 °F 82% 29.94 in 15.0 mi WNW 12.7 mph - N/A   Mostly Cloudy
2:00 PM 62.6 °F 51.8 °F 68% 29.96 in 15.0 mi West 5.8 mph - N/A   Scattered Clouds
3:00 PM 63 °F 50 °F 52% 29.96 in 15 mi WNW 3.5 mph - -   Partly Cloudy
3:00 PM 62.6 °F 50.0 °F 63% 29.96 in 15.0 mi WNW 2.3 mph - N/A   Mostly Cloudy
4:00 PM 62.6 °F 48.2 °F 59% 29.98 in 15.0 mi WNW 5.8 mph - N/A   Mostly Cloudy
5:00 PM 62.6 °F 46.4 °F 55% 30.00 in 15.0 mi North 9.2 mph - N/A   Mostly Cloudy
6:00 PM 59.0 °F 46.4 °F 63% 30.02 in 15.0 mi North 4.6 mph - N/A   Mostly Cloudy
7:00 PM 55.4 °F 48.2 °F 77% 30.04 in 15.0 mi East 3.5 mph - N/A   Mostly Cloudy
8:00 PM 51.8 °F 46.4 °F 82% 30.05 in 15.0 mi Calm Calm - N/A   Mostly Cloudy
9:00 PM 50 °F 47 °F 85% 30.07 in 15 mi Calm Calm - -   Partly Cloudy
9:00 PM 50.0 °F 46.4 °F 87% 30.07 in 15.0 mi Calm Calm - N/A   Scattered Clouds
10:00 PM 53.6 °F 48.2 °F 82% 30.08 in 15.0 mi Calm Calm - N/A   Mostly Cloudy
11:00 PM 51.8 °F 48.2 °F 88% 30.09 in 15.0 mi Calm Calm - N/A   Overcast